Regional Weather Roundup
Issued by NWS

Home | Current Version | Previous Version | Graphics & Text | Print | Product List | Glossary On
Versions: 1 2 3 4 5 6 7 8 9 10 11 12 13 14 15 16 17 18 19 20 21 22 23 24 25 26 27 28 29 30 31 32 33 34 35 36 37 38 39 40 41 42 43 44 45 46 47 48 49 50
000
ASUS43 KMKX 231159
RWRWI

WISCONSIN REGIONAL WEATHER ROUNDUP
NATIONAL WEATHER SERVICE MILWAUKEE/SULLIVAN WI
600 AM CST TUE JAN 23 2018

NOTE: "FAIR" INDICATES FEW OR NO CLOUDS BELOW 12,000 FEET WITH NO
SIGNIFICANT WEATHER AND/OR OBSTRUCTIONS TO VISIBILITY.

WIZ001-002-006>008-014>016-023>028-231300-
NORTHWEST WISCONSIN

CITY           SKY/WX    TMP DP  RH WIND       PRES   REMARKS
SUPERIOR ARPT  CLOUDY    13   7  75 CALM      29.98R
ASHLAND        CLOUDY    18  15  88 N13       29.92R WCI   5
6HR MIN TEMP:  18; 6HR MAX TEMP:  20; 6HR PCP: TRACE;

HAYWARD        CLOUDY    19  15  84 N13G21    29.87R WCI   6
6HR MIN TEMP:  19; 6HR MAX TEMP:  22;

SIREN          CLOUDY    17  10  76 N8G17     29.92R WCI   6
CUMBERLAND     CLOUDY    18  14  86 N17       29.86R WCI   2
RICE LAKE      CLOUDY    20  17  87 NW13G18   29.86R WCI   7
CHETEK         CLOUDY    20  17  88 N7        29.84R WCI  11
LADYSMITH      CLOUDY    20  18  89 N17G23    29.82R WCI   6
EAU CLAIRE     NOT AVBL
MENOMONIE      CLOUDY    22  18  84 NW12      29.86R WCI  11
NEW RICHMOND   CLOUDY    17  12  80 N12       29.91R WCI   4
OSCEOLA        CLOUDY    18  13  79 N15       29.95R WCI   4
$$

WIZ003>005-009-010-017-018-231300-
NORTH CENTRAL WISCONSIN

CITY           SKY/WX    TMP DP  RH WIND       PRES   REMARKS
MANITOWISH WTR LGT SNOW  16  16 100 N12G23    29.76R WCI   3
ARBOR VITAE    CLOUDY    19  17  89 N18G25    29.73R WCI   4
WOODRUFF       CLOUDY    19  17  89 N18G25    29.73R WCI   4
RHINELANDER    CLOUDY    19  16  88 N12G22    29.71R WCI   7
6HR MIN TEMP:  19; 6HR MAX TEMP:  23; 6HR PCP:  0.03;

EAGLE RIVER    CLOUDY    19  17  95 N15G24    29.72R WCI   4
6HR MIN TEMP:  19; 6HR MAX TEMP:  21;

LAND O LAKES   CLOUDY    19  17  92 N17G24    29.74R FOG     WCI   4
PHILLIPS       CLOUDY    18  17  95 N9G17     29.77R WCI   7
6HR MIN TEMP:  18; 6HR MAX TEMP:  22; 6HR PCP:  0.01;

TOMAHAWK       CLOUDY    19  15  82 N14G22    29.72R WCI   6
MEDFORD        CLOUDY    19  16  86 N20       29.72R WCI   4
MERRILL        MIX PCPN  21  17  84 N17G23    29.71R WCI   7
6HR MIN TEMP:  21; 6HR MAX TEMP:  24;

$$

WIZ029-030-035-036-043>047-231300-
CENTRAL WISCONSIN

CITY           SKY/WX    TMP DP  RH WIND       PRES   REMARKS
WAUSAU         FLURRIES  22  17  81 N16G28    29.68R WCI   8
6HR MIN TEMP:  22; 6HR MAX TEMP:  26; 6HR PCP:  0.03;

MOSINEE        LGT SNOW  21  19  93 N18G24    29.70R WCI   6
MARSHFIELD     CLOUDY    22  17  81 N15       29.71R WCI   9
6HR MIN TEMP:  22; 6HR MAX TEMP:  26; 6HR PCP: TRACE;

STEVENS POINT  MIX PCPN  21  20  96 NW7       29.69R WCI  13
WAUPACA        CLOUDY    27  22  80 NW12G18   29.67R WCI  17
WAUTOMA        FLURRIES  25  21  85 NW14      29.70R WCI  13
6HR MIN TEMP:  25; 6HR MAX TEMP:  30; 6HR PCP: TRACE;

WISC RAPIDS    NOT AVBL
CAMP DOUGLAS   NOT AVBL
$$

WIZ011>013-019>022-031-037>040-048>050-231300-
NORTHEAST WISCONSIN

CITY           SKY/WX    TMP DP  RH WIND       PRES   REMARKS
ANTIGO         LGT SNOW  20  17  89 N20       29.65R WCI   5
SHAWANO        LGT SNOW  27  23  85 N10       29.66R WCI  17
6HR MIN TEMP:  27; 6HR MAX TEMP:  31;

OCONTO         CLOUDY    26  22  85 N10G18    29.63R WCI  15
STURGEON BAY   FLURRIES  25  23  92 N25G32    29.61R WCI   9
6HR MIN TEMP:  25; 6HR MAX TEMP:  27;

GREEN BAY      CLOUDY    27  22  81 N18G26    29.63R WCI  14
6HR MIN TEMP:  27; 6HR MAX TEMP:  30; 6HR PCP:  0.01;

MANITOWOC      FLURRIES  27  24  89 N22G31    29.59R WCI  13
6HR MIN TEMP:  27; 6HR MAX TEMP:  31; 6HR PCP: TRACE;

APPLETON       LGT SNOW  27  21  80 N15G21    29.61R WCI  15
CLINTONVILLE   LGT SNOW  27  21  80 N10       29.66R WCI  17
OSHKOSH        CLOUDY    27  23  85 N18G24    29.64R WCI  14
6HR MIN TEMP:  27; 6HR MAX TEMP:  30; 6HR PCP: TRACE;

$$

WIZ032>034-041-042-053>061-231300-
SOUTHWEST WISCONSIN

CITY           SKY/WX    TMP DP  RH WIND       PRES   REMARKS
LA CROSSE      FLURRIES  28  23  81 NW17      29.80R WCI  16
6HR MIN TEMP:  27; 6HR MAX TEMP:  31; 6HR PCP:  0.03;

SPARTA         LGT SNOW  24  22  91 NW10      29.78R WCI  14
VIROQUA        CLOUDY    24  23  93 NW14      29.75R WCI  12
6HR MIN TEMP:  24; 6HR MAX TEMP:  31;

BOSCOBEL       MIX PCPN  29  21  72 N10G23    29.78R WCI  20
6HR MIN TEMP:  29; 6HR MAX TEMP:  34; 6HR PCP: TRACE;

PRAIRIE DU CHI CLOUDY    28  21  74 NW17      29.79R WCI  16
PLATTEVILLE    CLOUDY    29  27  90 NW15G23   29.71R WCI  18
$$

WIZ056-057-062-063-064-067-068-231300-
SOUTH CENTRAL WISCONSIN

CITY           SKY/WX    TMP DP  RH WIND       PRES   REMARKS
REEDSBURG      FLURRIES  26  22  87 N12G22    29.71R WCI  15
BARABOO/DELLS  FLURRIES  26  22  84 NW13G18   29.69R WCI  15
LONE ROCK      CLOUDY    27  21  78 NW16G30   29.75R WCI  15
6HR MIN TEMP:  27; 6HR MAX TEMP:  33; 6HR PCP: TRACE;

MINERAL POINT  FLURRIES  30  28  93 NW15G22   29.70R WCI  19
MADISON        CLOUDY    27  22  81 N18G29    29.69R WCI  14
6HR MIN TEMP:  27; 6HR MAX TEMP:  31; 6HR PCP: TRACE;

MIDDLETON      CLOUDY    29  25  83 NW18G24   29.68R WCI  17
WATERTOWN      CLOUDY    29  28  96 NW13      29.62R WCI  19
MONROE         CLOUDY    30  28  93 NW16G23   29.66R WCI  19
JANESVILLE     CLOUDY    32  32 100 NW13      29.65R WCI  22
$$

WIZ051-052-058>065-066-070>072-231300-
SOUTHEAST WISCONSIN

CITY           SKY/WX    TMP DP  RH WIND       PRES   REMARKS
MILWAUKEE      LGT SNOW  30  28  92 NW10      29.59R FOG     WCI  21
6HR MIN TEMP:  30; 6HR MAX TEMP:  34; 6HR PCP:  0.26;

WAUKESHA       LGT SNOW  27  25  93 NW9       29.61R WCI  17
MILWAUKEE/TIMM LGT SNOW  28  27  93 NW8       29.60R WCI  20
RACINE         LGT SNOW  30  28  92 NW10      29.61R FOG     WCI  21
6HR MIN TEMP:  30; 6HR MAX TEMP:  36; 6HR PCP:  0.17;

BURLINGTON     LGT SNOW  29  26  90 NW12      29.60R WCI  19
KENOSHA        LGT SNOW  30  28  92 NW13      29.60R FOG     WCI  20
6HR MIN TEMP:  30; 6HR MAX TEMP:  36; 6HR PCP:  0.09;

FOND DU LAC    CLOUDY    29  23  78 N16G23    29.64R WCI  17
6HR MIN TEMP:  29; 6HR MAX TEMP:  31; 6HR PCP: TRACE;

SHEBOYGAN      CLOUDY    28  26  92 N15G24    29.59R WCI  16
6HR MIN TEMP:  28; 6HR MAX TEMP:  32; 6HR PCP: TRACE;

WEST BEND      LGT SNOW  28  27  93 NW10G17   29.59R WCI  19
JUNEAU         CLOUDY    28  25  88 NW13G22   29.63R WCI  17
$$

LSZ147-162-231300-
LAKE SUPERIOR

STATION/POSITION TIME  TEMP    WIND        PRES    WAVE
                       AIR SEA DIR/SP/G            HT/PER
                 (UTC) (F)     (DEG/KT/KT) (MB)    (FT/S)
DEVILS ISLAND    1100   18     360/ 16/ 18 1014.7R
SAXON HARBOR     1130   22      30/ 15/ 19 1012.5R
$$

LMZ867-665-643>646-231300-
LAKE MICHIGAN

STATION/POSITION TIME  TEMP    WIND        PRES    WAVE
                       AIR SEA DIR/SP/G            HT/PER
                 (UTC) (F)     (DEG/KT/KT) (MB)    (FT/S)
NORTHPORT PIER   1140   25     340/  9/ 14 1003.0R
KEWAUNEE LAKESHO 1130   27     350/ 11/ 22 1001.2R
SHEBOYGAN LAKESH 1100   28     340/ 20/ 26 1001.3R
PORT WASHINGTON  1140   29     310/  6/  9 1003.4R
MILWAUKEE LAKESH 1130   29     310/  9/ 13   N/A
KENOSHA   LAKESH 1100   30     330/ 12/ 17 1001.7
$$

TC  - TEMPERATURE IN CELSIUS
VSB - VISIBILITY IN STATUTE MILES
WCI - WIND CHILL INDEX
HX  - HEAT INDEX





USA.gov is the U.S. government's official web portal to all federal, state and local government web resources and services.